Tracking 33679 objects as of 4-Apr-2026
HD Live streaming from Space Station
objects crossing your sky now
Track ARTEMIS 2 (INTEGRITY)

RCM-1

Track RCM-1 now!
10-day predictions


NORAD ID: 44322
Int'l Code: 2019-033A
Perigee: 596.0 km
Apogee: 598.0 km
Inclination: 97.8 °
Period: 96.5 minutes
Semi major axis: 6968 km
RCS: Unknown
Launch date: June 12, 2019
Source: Canada (CA)
Launch site: AIR FORCE WESTERN TEST RANGE (AFWTR)
Your satellite tracking list
Your tracking list is empty




NASA's NSSDC Master Catalog

Two Line Element Set (TLE):
1 44322U 19033A   26092.44739838 -.00000086  00000-0 -29583-5 0  9994
2 44322  97.7599 100.9631 0001449  91.7166 268.4219 14.92587908370781
Source of the keplerian elements: AFSPC